Location: Unspecified
(44.0704°N, 88.6889°W)
Time: 13:55:20
(UTC+02:00)

ISS - Pass Details

Date: 02 April 2019
Orbit: 408 x 410 km, 51.6° (Epoch: 25 April)

Event Time Altitude Azimuth Distance (km) Brightness Sun altitude
Rises 03:56:03 0° 302° (WNW) 2,338 1.8 -17.1°
Reaches altitude 10° 03:58:18 10° 313° (NW) 1,475 0.2 -17.4°
Maximum altitude 04:01:18 31° 18° (NNE) 736 -2.5 -17.9°
Enters shadow 04:01:59 29° 44° (NE) 791 -2.6 -18.0°
